Location: Kitchener
(43.4500°N, 80.5000°W)
Time: 23:44:51
(UTC-04:00)

Envisat - Visible Passes

Search period start: 18 July 2018 00:00
Search period end: 28 July 2018 00:00
Orbit: 764 x 766 km, 98.2° (Epoch: 18 July)

Date Brightness Start Highest point End Pass type
(mag) Time Alt. Az. Time Alt. Az. Time Alt. Az.
19 Jul 5.6 21:47:18 10° SW 21:50:44 18° W 21:54:11 10° NW visible
22 Jul 5.4 21:35:30 10° SW 21:39:27 23° W 21:43:26 10° NW visible
24 Jul 5.8 22:03:02 10° WSW 22:05:19 13° W 22:07:36 10° WNW visible
25 Jul 5.0 21:23:51 10° SSW 21:28:11 28° W 21:32:34 10° NW visible
27 Jul 5.6 21:50:51 10° SW 21:54:00 17° W 21:57:12 10° NW visible
